Location: Newark
(13.6797°N, 8.5297°E)
Time: 04:29:42
(UTC+00:00)

Altair - Pass Details

Date: 28 January 2020
Orbit: 1502 x 1682 km, 47.2° (Epoch: 19 February)

Event Time Altitude Azimuth Distance (km) Brightness Sun altitude
Rises 17:03:44 0° 292° (WNW) 4,852 11.0 3.8°
Reaches altitude 10° 17:08:03 10° 276° (W) 3,833 10.9 2.8°
Maximum altitude 17:14:28 20° 234° (SW) 3,077 10.5 1.4°
Drops below altitude 10° 17:20:47 10° 191° (S) 3,734 10.0 -0.1°
Sets 17:24:59 0° 175° (S) 4,687 10.2 -1.1°
